Regional Weather Roundup
Issued by NWS

Home | Current Version | Previous Version | Text Only | Print | Product List | Glossary Off
Versions: 1 2 3 4 5 6 7 8 9 10 11 12 13 14 15 16 17 18 19 20 21 22 23 24 25 26 27 28 29 30 31 32 33 34 35 36 37 38 39 40 41 42 43 44 45 46 47 48 49 50

000
ASUS43 KLMK 090910
RWRKY
KENTUCKY REGIONAL WEATHER ROUNDUP
NATIONAL WEATHER SERVICE LOUISVILLE KY
400 AM EST FRI DEC 09 2016

NOTE "FAIR" INDICATES FEW OR NO CLOUDS BELOW 12,000 FEET
WITH NO SIGNIFICANT WEATHER AND/OR OBSTRUCTIONS TO VISIBILITY.

KYZ001>023-026-027-061>063-070>075-091000-
WESTERN AND SOUTH CENTRAL KENTUCKY

CITY           SKY/WX    TMP DP  RH WIND       PRES   REMARKS
PADUCAH        CLEAR     22  12  65 NW7       30.59R WCI  13
HENDERSON      CLOUDY    27  12  54 NW6       30.58S WCI  20
OWENSBORO      CLOUDY    26  15  63 NW12      30.58R WCI  16
HOPKINSVILLE   CLOUDY    23  15  72 NW6       30.56R WCI  15
BOWLING GREEN  CLOUDY    26  14  60 NW9       30.56R WCI  17
GLASGOW        CLOUDY    25  16  70 N6        30.53S WCI  18
$$

KYZ024-025-028>034-038-045-046-053-091000-
NORTH CENTRAL KENTUCKY

CITY           SKY/WX    TMP DP  RH WIND       PRES   REMARKS
LOUISVILLE/SDF FLURRIES  24  10  55 NW10      30.54S WCI  14
LOUISVILLE/LOU CLOUDY    24  11  57 NW10      30.55R WCI  14
FORT KNOX      CLOUDY    23  12  63 NW8       30.51S WCI  14
$$

KYZ035>037-039>044-047>052-055>060-089>105-091000-
NORTHEAST KENTUCKY

CITY           SKY/WX    TMP DP  RH WIND       PRES   REMARKS
LEXINGTON      LGT SNOW  23  16  74 NW8       30.49R WCI  14
COVINGTON      FLURRIES  22  13  68 NW14      30.47S WCI   9
FRANKFORT      FLURRIES  23  13  65 NW8       30.50R WCI  14
$$

KYZ054-064>069-076>088-106>120-091000-
SOUTHEAST KENTUCKY

CITY           SKY/WX    TMP DP  RH WIND       PRES   REMARKS
JACKSON        CLOUDY    22  12  65 W6        30.43S WCI  14
LONDON         CLOUDY    22  12  65 NW9       30.46R WCI  12
SOMERSET       CLOUDY    23  14  68 N8        30.51S WCI  14
MIDDLESBORO    CLOUDY    26  16  67 N12       30.45R WCI  15
MONTICELLO     CLOUDY    25  16  68 VRB6      30.51R WCI  18
$$





USA.gov is the U.S. government's official web portal to all federal, state and local government web resources and services.